Skip Page Navigation
NASA JPL Caltech
NASA Logo - Jet Propulsion Laboratory + View the NASA Portal
+ Near-Earth Object (NEO) Program
Search JPL
JPL Home Earth Solar System Stars & Galaxies Technology
JPL Solar System Dynamics
BODIES ORBITS EPHEMERIDES TOOLS PHYSICAL DATA DISCOVERY FAQ SITE MAP
JPL Small-Body Database Browser
Search: [ help ]  
23281 Vijayjain (2000 YY116)
Classification: Main-belt Asteroid          SPK-ID: 2023281
Ephemeris | Orbit Diagram | Orbital Elements | Physical Parameters | Discovery Circumstances ]

[ show orbit diagram ]
Orbital Elements at Epoch 2457600.5 (2016-Jul-31.0) TDB
Reference: JPL 15 (heliocentric ecliptic J2000)
 Element Value Uncertainty (1-sigma)   Units 
e .1667241239210948 4.0748e-08  
a 2.32151844378771 1.3253e-08 au
q 1.934465315080541 9.5206e-08 au
i 5.658482884233416 5.2384e-06 deg
node 101.2784319773493 4.6636e-05 deg
peri 257.7418285147656 4.9905e-05 deg
M 258.0087957385876 1.9715e-05 deg
tp 2457966.530144580776
(2017-Aug-01.03014458)
7.2438e-05 JED
period 1291.982509700925
3.54
1.1063e-05
3.029e-08
d
yr
n .2786415429751712 2.386e-09 deg/d
Q 2.70857157249488 1.5463e-08 au
  Orbit Determination Parameters
   # obs. used (total)      1104  
   data-arc span      8481 days (23.22 yr)  
   first obs. used      1993-01-24  
   last obs. used      2016-04-14  
   planetary ephem.      DE431  
   SB-pert. ephem.      SB431-BIG16  
   condition code      0  
   fit RMS      .51383  
   data source      ORB  
   producer      Otto Matic  
   solution date      2016-Apr-25 13:40:50  

Additional Information
 Earth MOID = .939099 au 
 Jupiter MOID = 2.73782 au 
 T_jup = 3.552 
[ show covariance matrix ]

Ephemeris | Orbit Diagram | Orbital Elements | Physical Parameters | Discovery Circumstances ]

Physical Parameter Table
Parameter Symbol Value Units Sigma Reference Notes
absolute magnitude H 14.8 mag n/a MPO365529  

23281 Vijayjain           Discovered 2000 Dec. 30 by the Lincoln Laboratory Near-Earth Asteroid Research Team in Socorro.
Vijay Jain (b. 1989) was awarded first place in the 2007 Intel International Science and Engineering Fair for his biochemistry team project. He attends the Herricks High School, New Hyde Park, New York, U.S.A.
NOTE: some special characters may not display properly (any characters within {} are an attempt to place the proper accent above a character)
Reference: 20070828/MPCPages.arcLast Updated: 2007-08-30

Alternate Designations
 2000 YY116 = 1998 HB135 = 1999 VA125 
Ephemeris | Orbit Diagram | Orbital Elements | Physical Parameters | Discovery Circumstances ]
ABOUT SSD CREDITS/AWARDS PRIVACY/COPYRIGHT GLOSSARY LINKS
FirstGov 2016-May-05 21:54 UT
(server date/time)  
NASA Home Page
Site Manager:   Ryan S. Park
Webmaster  Alan B. Chamberlin